Flag for South Africa Weather past 2 weeks in Durban, South Africa

Now
63 °F

Passing clouds.


Feels Like: 63 °F
Forecast: 58 / 78 °F
Wind: 1 mph from North

Location: King Shaka International Airport

Current Time: Apr 19, 2015 at 10:10:21 PM

Latest Report: Apr 19, 2015 at 9:00 PM


Visibility: N/A

Pressure: 30.07 "Hg

Humidity: 88%

Dew point: 59 °F

Location of DurbanLocation

Historic Weather in Durban — Graph

°F

Durban temperature yesterday

Maximum temperature yesterday: 73 °F (at 11:00 AM)
Minimum temperature yesterday: 55 °F (at 2:00 AM)
Average temperature yesterday: 64 °F

Past Weeks' High & Low Weather Summary

 TemperatureHumidityPressure
High81 °F (Apr 13, 11:00 AM)94% (Apr 4, 10:00 PM)30.30 "Hg (Apr 4, 10:00 PM)
Low55 °F (Apr 18, 2:00 AM)36% (Apr 18, 11:00 AM)29.71 "Hg (Apr 5, 12:00 AM)
Average68 °F75%30.09 "Hg
* Reported Apr 4 9:00 PM — Apr 19 9:00 PM, Durban, Weather by CustomWeather, © 2015

Note: Actual official high and low records may vary slightly from our data, if they occured in-between our weather recording intervals... More about our weather records

Advertising

Durban weather history for previous 24 hours

 ConditionsComfort  
Time TempWeatherWind HumidityBarometerVisibility
9:00 PM
Sun, Apr 19
63 °FPassing clouds.1 mph88%30.07 "HgN/A
8:00 PM63 °FPassing clouds.2 mph94%30.07 "HgN/A
7:00 PM64 °FPassing clouds.1 mph94%30.04 "HgN/A
6:00 PM66 °FPassing clouds.5 mph88%30.01 "HgN/A
5:00 PM70 °FPartly cloudy.3 mph83%30.01 "HgN/A
4:00 PM68 °FLight rain. Broken clouds.2 mph83%30.04 "HgN/A
3:00 PM68 °FThunderstorms. Broken clouds.5 mph83%30.01 "Hg3 mi
2:00 PM72 °FBroken clouds.6 mph65%30.01 "HgN/A
1:00 PM72 °FPartly sunny.9 mph69%30.04 "HgN/A
12:00 PM72 °FPartly sunny.8 mph65%30.07 "HgN/A
11:00 AM73 °FScattered clouds.8 mph65%30.07 "HgN/A
10:00 AM72 °FPassing clouds.8 mph65%30.09 "HgN/A
9:00 AM70 °FPassing clouds.5 mph69%30.09 "HgN/A
8:00 AM66 °FSunny.1 mph83%30.09 "Hg10 mi
7:00 AM59 °FSunny.1 mph94%30.09 "Hg10 mi
6:00 AM57 °FSunny.2 mph94%30.09 "Hg10 mi
5:00 AM61 °FClear.1 mph88%30.09 "Hg10 mi
4:00 AM63 °FPassing clouds.3 mph88%30.09 "HgN/A
3:00 AM64 °FPassing clouds.2 mph83%30.09 "HgN/A
2:00 AM64 °FClear.1 mph88%30.15 "Hg10 mi
1:00 AM64 °FClear.1 mph83%30.15 "Hg10 mi
12:00 AM64 °FClear.1 mph88%30.18 "Hg10 mi
11:00 PM
Sat, Apr 18
64 °FPassing clouds.1 mph88%30.18 "HgN/A
10:00 PM66 °FMostly cloudy.3 mph83%30.18 "HgN/A
Weather by CustomWeather, © 2015

See weather overviewHow to use our weather pages